This demonstration page uses our WeatherBlox Daily Observations layout. Learn more.

41.55636, -103.73856

Hourly Observations for August 30, 2018

Temp ( °F °C ) Dew Point ( °F °C ) Humidity (%) Winds ( mph kmh ) Pressure ( in mb ) Visibility ( mi km ) Precip ( " mm )
12:58 am 00:58 Clear 61 16.1 54 12 77 77 SW 12 19 29.91 1013 10 16.09344 0 0
1:58 am 01:58 Clear 60 15.4 54 12.1 81 81 WSW 9 15 29.91 1013 10 16.09344 0 0
2:58 am 02:58 Clear 58 14.5 54 12.1 86 86 SSW 10 17 29.88 1012 10 16.09344 0 0
3:58 am 03:58 Mostly Clear 57 14 54 12 88 88 SW 6 9 29.94 1014 10 16.09344 0 0
4:58 am 04:58 Mostly Clear 55 12.9 52 11.3 90 90 W 10 17 29.91 1013 10 16.09344 0 0
5:58 am 05:58 Clear 56 13.5 53 11.5 88 88 WSW 8 13 29.91 1013 10 16.09344 0 0
6:58 am 06:58 Sunny 54 12.3 52 11.2 93 93 WSW 10 17 29.94 1014 10 16.09344 0 0
7:58 am 07:58 Mostly Sunny 64 17.9 46 7.9 52 52 W 8 13 29.91 1013 10 16.09344 0 0
8:58 am 08:58 Sunny 77 24.8 39 4.1 26 26 WNW 12 19 29.88 1012 10 16.09344 0 0
9:58 am 09:58 Sunny 83 28.2 32 -0.2 16 16 WNW 9 15 29.88 1012 10 16.09344 0 0
10:58 am 10:58 Sunny 86 29.8 31 -0.5 14 14 N 9 15 29.88 1012 10 16.09344 0 0
11:58 am 11:58 Sunny 87 30.4 31 -0.3 14 14 N 10 17 29.88 1012 10 16.09344 0 0
12:58 pm 12:58 Mostly Sunny 88 30.9 28 -2.5 11 11 WSW 7 11 29.85 1011 10 16.09344 0 0
1:58 pm 13:58 Sunny 87 30.3 31 -0.7 13 13 W 13 20 29.85 1011 10 16.09344 0 0
3:58 pm 15:58 Mostly Sunny 86 30.1 30 -1.1 13 13 NW 9 15 29.83 1010 10 16.09344 0 0
4:58 pm 16:58 Mostly Sunny 82 28 41 4.8 23 23 N 5 7 29.85 1011 10 16.09344 0 0
5:58 pm 17:58 Mostly Cloudy 78 25.7 38 3.3 23 23 SSE 9 15 29.85 1011 10 16.09344 0 0
6:58 pm 18:58 Mostly Cloudy 79 26.2 34 1.1 19 19 S 8 13 29.85 1011 10 16.09344 0 0
7:58 pm 19:58 Mostly Cloudy 78 25.8 33 0.4 19 19 S 5 7 29.83 1010 10 16.09344 0 0
8:58 pm 20:58 Mostly Cloudy 74 23.2 35 1.6 24 24 S 7 11 29.83 1010 10 16.09344 0 0
9:58 pm 21:58 Mostly Cloudy 83 28.1 29 -1.8 14 14 WSW 21 33 29.8 1009 10 16.09344 0 0
10:58 pm 22:58 Mostly Cloudy 80 26.6 28 -2.3 15 15 SW 18 30 29.77 1008 10 16.09344 0 0
11:58 pm 23:58 Mostly Cloudy 74 23.2 42 5.5 32 32 SSE 13 20 29.8 1009 10 16.09344 0 0

Powered by AerisWeather